EW2804 Weather Reports


time (UTC)temp
F
wind
direction
speed
knots
gust
knots
rain 1hr
in
rain 24hr
in
rain mn
in
humidity
%
barometer
mb
20260901024207 82 59 0.0 0.0 0.00 0.00 0.00 54 1012.0
20260901023212 82 59 0.0 0.0 0.00 0.00 0.00 54 1011.9
20260901022221 83 59 0.0 0.0 0.00 0.00 0.00 52 1011.8
20260901021200 84 59 0.0 0.0 0.00 0.00 0.00 50 1011.6
20260901020146 85 59 0.0 0.0 0.00 0.00 0.00 48 1011.6
20260901015158 87 59 0.0 0.0 0.00 0.00 0.00 48 1011.4
20260901014141 88 59 0.0 0.0 0.00 0.00 0.00 48 1011.3
20260901013143 90 59 0.0 0.0 0.00 0.00 0.00 42 1011.3
20260901012106 91 59 0.0 0.0 0.00 0.00 0.00 40 1011.2
20260901011059 93 59 0.0 0.0 0.00 0.00 0.00 37 1011.2
20260901010113 94 59 0.0 0.0 0.00 0.00 0.00 35 1011.2
20260901003955 96 169 0.0 2.6 0.00 0.00 0.00 31 1011.2
20260901003008 97 169 0.0 0.0 0.00 0.00 0.00 31 1011.1
20260901002003 97 169 0.0 2.6 0.00 0.00 0.00 31 1011.1
20260901001018 98 211 0.9 0.0 0.00 0.00 0.00 30 1011.1
20260831235949 98 136 0.9 6.1 0.00 0.00 0.00 28 1011.1
20260831232720 100 142 0.9 5.2 0.00 0.00 0.00 29 1011.0
20260831231713 100 140 0.9 5.2 0.00 0.00 0.00 30 1011.1
20260831230716 100 179 0.9 4.3 0.00 0.00 0.00 28 1011.2
20260831225725 100 142 1.7 5.2 0.00 0.00 0.00 28 1011.2
20260831224739 100 84 0.9 5.2 0.00 0.00 0.00 29 1011.2
20260831222602 101 129 1.7 5.2 0.00 0.00 0.00 27 1011.3
20260831221526 100 205 0.9 5.2 0.00 0.00 0.00 28 1011.3
20260831220508 99 178 1.7 6.1 0.00 0.00 0.00 29 1011.5
20260831215435 99 175 1.7 6.1 0.00 0.00 0.00 29 1011.6
20260831214434 100 86 0.9 7.0 0.00 0.00 0.00 29 1011.7
20260831213435 100 59 1.7 7.0 0.00 0.00 0.00 28 1011.7
20260831212456 99 138 1.7 6.1 0.00 0.00 0.00 31 1011.9
20260831211438 101 138 1.7 6.1 0.00 0.00 0.00 28 1011.9
20260831210447 100 140 1.7 7.8 0.00 0.00 0.00 30 1012.0
20260831205501 99 73 2.6 8.7 0.00 0.00 0.00 30 1012.2
20260831204504 100 127 2.6 8.7 0.00 0.00 0.00 30 1012.4
20260831203512 99 257 0.0 3.5 0.00 0.00 0.00 31 1012.4
20260831202512 98 197 1.7 7.0 0.00 0.00 0.00 31 1012.6
20260831201449 99 167 1.7 7.0 0.00 0.00 0.00 30 1012.7
20260831200456 101 279 1.7 10.4 0.00 0.00 0.00 29 1012.8
20260831195506 99 197 2.6 10.4 0.00 0.00 0.00 29 1012.8
20260831194517 100 130 2.6 7.8 0.00 0.00 0.00 30 1013.0
20260831192410 99 113 1.7 6.1 0.00 0.00 0.00 31 1013.4
20260831191359 101 115 1.7 9.6 0.00 0.00 0.00 30 1013.4
20260831190325 99 171 2.6 9.6 0.00 0.00 0.00 33 1013.5
20260831185312 99 90 2.6 8.7 0.00 0.00 0.00 32 1013.6
20260831184244 97 138 1.7 8.7 0.00 0.00 0.00 36 1013.7
20260831182121 98 154 1.7 7.0 0.00 0.00 0.00 36 1014.0
20260831181142 98 142 1.7 6.1 0.00 0.00 0.00 35 1014.1
20260831180200 98 90 1.7 7.8 0.00 0.00 0.00 36 1014.4
20260831175130 97 124 2.6 7.8 0.00 0.00 0.00 36 1014.6
20260831174143 97 141 2.6 7.0 0.00 0.00 0.00 35 1014.6
20260831173106 96 199 2.6 7.0 0.00 0.00 0.00 37 1014.7
20260831172110 97 42 1.7 6.1 0.00 0.00 0.00 37 1014.8
20260831171127 96 251 1.7 6.1 0.00 0.00 0.00 37 1014.9
20260831170128 96 240 1.7 4.3 0.00 0.00 0.00 37 1015.0
20260831165124 96 196 1.7 5.2 0.00 0.00 0.00 37 1014.9
20260831162948 95 183 1.7 7.0 0.00 0.00 0.00 40 1015.0
20260831162008 94 237 1.7 7.0 0.00 0.00 0.00 41 1015.1
20260831160934 94 174 1.7 5.2 0.00 0.00 0.00 42 1015.1
20260831155933 94 157 0.9 7.8 0.00 0.00 0.00 42 1015.1
20260831154906 93 182 1.7 7.8 0.00 0.00 0.00 43 1015.2
20260831153902 93 157 0.9 5.2 0.00 0.00 0.00 44 1015.2
20260831151711 91 227 0.9 3.5 0.00 0.00 0.00 48 1014.9
20260831145448 89 148 0.9 3.5 0.00 0.00 0.00 50 1015.0
20260831144410 88 175 0.9 3.5 0.00 0.00 0.00 54 1015.0
20260831142247 87 224 0.9 5.2 0.00 0.00 0.00 57 1015.0
20260831140042 85 222 0.9 2.6 0.00 0.00 0.00 62 1014.9
20260831135039 83 194 0.0 2.6 0.00 0.00 0.00 67 1014.8
20260831134037 81 115 0.0 0.0 0.00 0.00 0.00 69 1014.6
20260831133007 79 181 0.0 1.7 0.00 0.00 0.00 74 1014.5
20260831130758 75 254 0.0 0.0 0.00 0.00 0.00 79 1014.2
20260831125736 74 254 0.0 0.0 0.00 0.00 0.00 79 1014.1
20260831124748 74 254 0.0 0.0 0.00 0.00 0.00 79 1013.9
20260831123727 74 24 0.0 0.0 0.00 0.00 0.00 79 1013.7
20260831122704 74 154 0.0 0.0 0.00 0.00 0.00 78 1013.6
20260831121656 74 154 0.0 0.0 0.00 0.00 0.00 78 1013.4
20260831120622 74 154 0.0 0.0 0.00 0.00 0.00 77 1013.3
20260831115632 74 154 0.0 0.0 0.00 0.00 0.00 76 1013.2
20260831114624 74 154 0.0 0.0 0.00 0.00 0.00 76 1013.0
20260831113629 74 154 0.0 0.0 0.00 0.00 0.00 75 1013.0
20260831112631 75 154 0.0 0.0 0.00 0.00 0.00 74 1012.9
20260831111610 75 154 0.0 0.0 0.00 0.00 0.00 73 1012.8
20260831110548 75 154 0.0 0.0 0.00 0.00 0.00 72 1012.7
20260831105541 76 154 0.0 0.0 0.00 0.00 0.00 72 1012.6
20260831104602 76 154 0.0 0.0 0.00 0.00 0.00 70 1012.7
20260831102441 78 154 0.0 0.0 0.00 0.00 0.00 67 1012.7
20260831100334 79 154 0.0 0.0 0.00 0.00 0.00 64 1012.5
20260831095348 80 154 0.0 0.0 0.00 0.00 0.00 64 1012.4
20260831094352 81 154 0.0 0.0 0.00 0.00 0.00 62 1012.4
20260831093331 81 154 0.0 0.0 0.00 0.00 0.00 61 1012.4
20260831092314 81 154 0.0 0.0 0.00 0.00 0.00 61 1012.4
20260831091314 82 154 0.0 0.0 0.00 0.00 0.00 59 1012.3
20260831090326 82 154 0.0 0.0 0.00 0.00 0.00 58 1012.3
20260831085312 83 154 0.0 0.0 0.00 0.00 0.00 57 1012.2
20260831084252 83 158 0.0 0.0 0.00 0.00 0.00 56 1012.2
20260831083251 83 153 0.0 0.9 0.00 0.00 0.00 56 1012.2
20260831082252 83 153 0.0 2.6 0.00 0.00 0.00 55 1012.3
20260831081222 83 142 0.0 0.9 0.00 0.00 0.00 56 1012.3
20260831080211 82 175 0.0 2.6 0.00 0.00 0.00 56 1012.2
20260831075141 81 92 0.0 4.3 0.00 0.00 0.00 58 1012.1
20260831073021 77 128 0.0 0.0 0.00 0.00 0.00 65 1011.9
20260831070825 77 128 0.0 0.0 0.00 0.00 0.00 68 1012.0
20260831065805 77 128 0.0 0.0 0.00 0.00 0.00 67 1012.0
20260831063636 77 128 0.0 0.0 0.00 0.00 0.00 66 1012.2
20260831061433 78 128 0.0 0.0 0.00 0.00 0.00 66 1012.2
20260831060410 78 128 0.0 0.0 0.00 0.00 0.00 66 1012.1
20260831055430 78 128 0.0 0.0 0.00 0.00 0.00 65 1012.1
20260831052213 79 128 0.0 0.0 0.00 0.00 0.00 64 1012.0
20260831051156 79 128 0.0 0.0 0.00 0.00 0.00 63 1011.9
20260831050157 80 128 0.0 0.0 0.00 0.00 0.00 63 1011.9
20260831045204 80 128 0.0 0.0 0.00 0.00 0.00 62 1011.8
20260831044137 81 128 0.0 0.0 0.00 0.00 0.00 62 1011.9
20260831043136 81 128 0.0 0.0 0.00 0.00 0.00 61 1011.9
20260831042155 82 128 0.0 0.0 0.00 0.00 0.00 59 1011.9
20260831040023 83 128 0.0 0.0 0.00 0.00 0.00 57 1011.8
20260831035019 83 128 0.0 0.0 0.00 0.00 0.00 56 1011.7
20260831034014 84 128 0.0 0.0 0.00 0.00 0.00 55 1011.7
20260831031847 85 128 0.0 0.0 0.00 0.00 0.00 54 1011.6
20260831030830 85 128 0.0 0.0 0.00 0.00 0.00 53 1011.5
20260831025815 85 128 0.0 0.0 0.00 0.00 0.00 52 1011.4
20260831024741 85 128 0.0 0.0 0.00 0.00 0.00 50 1011.3